CZ-6A DEB, 56633

Orbit data source: Space-Track

CZ-6A DEB, 56633 is space debris in SSO originally from a launch on Fri, 11 Nov 2022 UTC launched from the Taiyaun Space Center, China (TSC). Debris objects in space refer to the collection of defunct objects orbiting the Earth. Examples of debris include non-operational satellites, rocket bodies, and fragments generated from explosions, collisions, or faulty payload assembly.

Loading next visibility...
Identifier
56633, 2022-151AFH
Orbit
SSO
Country
Flag of CNCN / PRC
Related business
Manufacturer
SAST
Mission
Spacecraft
Bus & Motor
Unknown
Mass
Unknown
Launch date (UTC)
2022-11-11 (4 years ago)
Launch vehicle
Unknown
Launch site
Taiyaun Space Center, China (TSC)
Object type
Payload
Rocket body
Debris
Shape & HBR
Unknown shape, 0.1 m
Radar Cross Section
Small (<0.1 m²)

Expand to show TLE details & history
Last TLE update: 1 week ago

TLE from 1 week ago
0 CZ-6A DEB
1 56633U 22151AFH 26166.68340654  .00001046  00000-0  63849-3 0  9995
2 56633  98.8728 157.8107 0075876  22.3739 338.0711 14.06770805161802
Epoch: 2026-06-15T16:24Z
TLE epoch observation values (Epoch: 2026-06-15T16:24:06.325Z)
Latitude
0.00005°
Longitude
7.81806°
Altitude
822.363 km
Speed
7.468 km/s
True Right ascension
10h 31m 14s
True Declination
0° 00' 00"
Sunlit
Object was in daylight at epoch
Visualization orbit readout
Latitude
Unknown
Longitude
Unknown
Altitude
Unknown
Speed
Unknown
Apparent Right ascension
Unknown
Apparent Declination
Unknown
Sunlit
N/A
Visualization observer readout
Local Sidereal Time
21:51:24
Azimuth
Unknown
Elevation
Unknown
Doppler factor
Unknown
Orbital elements
Apogee altitude
922.605 km
Perigee altitude
812.649 km
Semi-major axis
7,245.764 km
Eccentricity
0.00759
Inclination
98.8728°
RAAN
157.8107°
Arg. of periapsis
22.3739°
True anomaly
337.74351°
Mean anomaly
338.0711°
Eccentric anomaly
337.90759°
Mean motion
3.51898 °/min
Orbital period
102.3 mins
BSTAR
0.00063849
Loading maneuver chart data...
Computing Atmospheric mass density...
Loading historical data...
Loading historical data...
Loading historical data...
Loading historical data...
Loading historical data...
Loading historical data...
Loading historical data...

Documentation

Showing up to 5 results
|